Location: Rowland
(34.5359°N, 79.2929°W)
Time: 19:26:36
(UTC+00:00)

Transit 2A - Pass Details

Date: 13 October 2022
Orbit: 598 x 959 km, 66.7° (Epoch: 03 December)

Event Time Altitude Azimuth Distance (km) Brightness Sun altitude
Rises 12:03:52 0° 315° (NW) 3,095 8.6 7.8°
Reaches altitude 10° 12:06:36 10° 300° (WNW) 2,235 7.8 8.3°
Maximum altitude 12:10:23 21° 251° (WSW) 1,673 7.4 9.1°
Drops below altitude 10° 12:14:27 10° 204° (SSW) 2,407 8.5 9.9°
Sets 12:17:33 0° 189° (S) 3,405 9.5 10.5°
